PEGASUS DEB

Satellite information

Favourite Embed

Satellite Type and Status

DEBRISIN ORBIT

Key statistics

Satellite PEGASUS DEB at a glance.

Uptime

11539

Days in orbit

Revolutions

≈ 14.1

Per day

Orbit

LEO

Low Earth Orbit

Inclination

81.5

Latest

Satellite identification and parameters

Extended collection of information and parameters for PEGASUS DEB.

Object identification

Identified? True

Debris? True

Object name: PEGASUS DEB

International designator: 1994-029AFA

Object number (NORAD): 39315

Object ID (CCSDS): 39315

Country: UNITED STATES OF AMERICA (US)

Current information (Y/N): Y

RCS size: SMALL

Orbital parameters

Period: 102.406 minutes

Inclination: 81.4936 deg

SMA: 7250.651 km

Apoapsis: 1157.183 km

Periapsis: 587.85 km

RAAN: 94.0246 deg

Eccentricy: 0.0392608

Argument of periapsis: 171.2526 deg

Mean anomaly: 189.5763 deg

Mean motion: 14.0616803 rev/day

Mean motion (dot): 0.00003212 rev/day2

B* drag term: 0.0009623 1/REarth

Two-line elements (TLE)

Creation date: Dec. 20, 2025, 11:46 p.m.

Reference frame: TEME

Reference center: EARTH

Epoch: Dec. 20, 2025, 1:50 p.m. UTC

TLE line 0: 0 PEGASUS DEB

TLE line 1: 1 39315U 94029AFA 25354.57647667 .00003212 00000-0 96230-3 0 9993

TLE line 2: 2 39315 81.4936 94.0246 0392608 171.2526 189.5763 14.06168030637319

Live tracking on map

Real-time ground track for satellite PEGASUS DEB.

In-orbit conjunctions

A list of the most updated potential collisions computed for object PEGASUS DEB.

Target Orbit TCA Probability of collision Miss distance Type
CBERS 2 SSO 2025-12-22 19:14:14 0.0001426693 980.0 (m) PAYLOAD
THORAD AGENA D DEB SSO 2025-06-20 20:02:29 0.0003017943 32.0 (m) DEBRIS
SL-16 DEB SSO 2025-03-30 05:20:24 0.000102662 118.0 (m) DEBRIS
FENGYUN 1C DEB SSO 2024-11-13 15:01:01 0.0008823215 236.0 (m) DEBRIS

Associated space launch

PEGASUS DEB was lifted into orbit during the mission ‘Pegasus HAPS | Space Test Experiments Platform 2 (STEP-2)’, on board a Pegasus HAPS space rocket.

The launch took place on May 19, 1994, 5:03 p.m. from Edwards Air Force Base.

For more information about the launch, click the button.

Launch to space Pegasus HAPS | Space Test Experiments Platform 2 (STEP-2)
Pegasus HAPS | Space Test Experiments Platform 2 (STEP-2)

Agency: N/A

Status: Launch Successful

Launch date: May 19, 1994, 5:03 p.m. UTC

Rocket: Pegasus HAPS

Launch pad: Edwards Air Force Base

Location: Air launch to orbit

...

Latest news about this satellite

There are no fresh news available about this satellite. Check back as we update our databases every day.


Newsletter sign-up

Weekly statistics, charts and insights to help you stay on top of the space industry.